TimePDT,TemperatureF,Dew PointF,Humidity,Sea Level PressureIn,VisibilityMPH,Wind Direction,Wind SpeedMPH,Gust SpeedMPH,PrecipitationIn,Events,Conditions,WindDirDegrees,DateUTC
12:53 AM,75.0,54.0,48,29.82,10.0,South,6.9,-,N/A,,Clear,190,2013-09-11 07:53:00
1:53 AM,73.0,55.0,53,29.84,10.0,SSW,5.8,-,N/A,,Clear,200,2013-09-11 08:53:00
2:53 AM,71.1,55.0,57,29.85,10.0,South,3.5,-,N/A,,Clear,190,2013-09-11 09:53:00
3:53 AM,68.0,55.0,63,29.86,10.0,Calm,Calm,-,N/A,,Clear,0,2013-09-11 10:53:00
4:53 AM,66.9,54.0,63,29.87,10.0,Calm,Calm,-,N/A,,Clear,0,2013-09-11 11:53:00
5:53 AM,66.0,54.0,65,29.89,10.0,Calm,Calm,-,N/A,,Clear,0,2013-09-11 12:53:00
6:53 AM,64.0,54.0,70,29.91,10.0,Calm,Calm,-,N/A,,Clear,0,2013-09-11 13:53:00
7:53 AM,66.9,55.0,66,29.92,10.0,Calm,Calm,-,N/A,,Clear,0,2013-09-11 14:53:00
8:53 AM,71.1,55.0,57,29.93,10.0,Calm,Calm,-,N/A,,Clear,0,2013-09-11 15:53:00
9:53 AM,73.9,55.0,52,29.92,10.0,Calm,Calm,-,N/A,,Clear,0,2013-09-11 16:53:00
10:53 AM,78.1,55.0,45,29.91,10.0,SSW,4.6,-,N/A,,Clear,200,2013-09-11 17:53:00
11:53 AM,82.9,55.0,38,29.89,10.0,Variable,3.5,-,N/A,,Clear,0,2013-09-11 18:53:00
12:53 PM,86.0,55.0,35,29.88,10.0,South,5.8,-,N/A,,Clear,170,2013-09-11 19:53:00
1:53 PM,90.0,54.0,29,29.86,10.0,Variable,5.8,-,N/A,,Clear,0,2013-09-11 20:53:00
2:53 PM,91.0,53.1,27,29.85,10.0,South,9.2,-,N/A,,Clear,170,2013-09-11 21:53:00
3:53 PM,91.9,53.1,27,29.83,10.0,SSE,11.5,16.1,N/A,,Clear,150,2013-09-11 22:53:00
4:53 PM,91.9,50.0,24,29.82,10.0,South,8.1,-,N/A,,Clear,190,2013-09-11 23:53:00
5:53 PM,91.0,51.1,25,29.82,10.0,South,10.4,-,N/A,,Clear,170,2013-09-12 00:53:00
6:53 PM,87.1,51.1,29,29.83,10.0,SSE,9.2,-,N/A,,Clear,160,2013-09-12 01:53:00
7:53 PM,81.0,57.0,44,29.85,10.0,SSE,6.9,-,N/A,,Clear,150,2013-09-12 02:53:00
8:53 PM,77.0,54.0,45,29.88,10.0,SSE,8.1,-,N/A,,Clear,160,2013-09-12 03:53:00
9:53 PM,75.0,53.1,46,29.90,10.0,SSE,3.5,-,N/A,,Clear,150,2013-09-12 04:53:00
10:53 PM,73.0,54.0,51,29.91,10.0,Calm,Calm,-,N/A,,Clear,0,2013-09-12 05:53:00
11:53 PM,70.0,55.9,61,29.91,10.0,Calm,Calm,-,N/A,,Clear,0,2013-09-12 06:53:00